Theta_e
336 335 339 341 341 341 338 336 332 334 336 327 322 322 319 322 333 339 339 341 341 340 342 342 343 344 344 344 344 344 344 344 344 344 343 343 342 340 337 335 334 334 335 338 340 340 340 340 339 337 335 335 334 333 333 333 332 331 331 332 332 332 334 334 334 335 336 337 337 337 337 338 338 339 338 337 332 329 332 336 338 339 338 337 336
334 335 338 340 341 342 337 336 335 331 335 329 323 322 324 332 336 339 340 341 341 341 342 342 343 344 344 344 344 344 344 344 344 344 343 343 341 336 333 335 336 337 339 340 340 340 339 338 338 336 335 334 332 331 331 331 331 330 330 331 331 332 333 333 334 334 335 337 337 337 337 338 339 339 339 338 334 331 334 338 338 338 338 337 337
332 336 338 340 341 342 336 337 337 329 333 332 327 323 326 336 338 338 340 340 341 342 343 343 344 343 343 344 344 344 343 344 344 343 343 341 338 333 333 337 338 339 340 340 340 339 339 338 336 335 335 333 329 328 329 330 330 330 331 331 331 331 333 333 334 334 335 336 336 336 336 338 338 339 339 338 335 333 336 338 338 337 338 337 337
332 336 337 340 341 342 337 337 339 331 332 332 329 323 322 334 338 338 340 340 341 341 342 343 344 343 344 343 344 344 343 343 343 343 340 338 336 334 335 338 339 340 339 338 339 338 337 337 336 335 335 331 327 327 328 329 330 330 331 331 331 332 333 334 334 333 334 335 335 335 335 337 338 339 338 338 336 335 337 338 337 337 337 337 337
332 335 337 340 340 342 339 336 340 334 331 333 329 321 318 328 336 338 339 340 341 341 342 342 343 343 343 343 343 343 342 342 342 342 339 337 337 337 338 339 340 339 338 338 338 336 337 336 335 335 333 329 326 327 327 328 329 329 331 331 331 332 333 333 333 333 333 334 335 335 335 337 338 338 338 337 336 336 337 337 337 337 337 337 336
333 335 338 341 341 342 340 336 339 337 332 332 327 318 316 320 330 337 339 340 340 341 341 341 342 342 343 342 342 342 341 341 340 340 337 337 338 338 339 339 338 337 337 337 336 336 336 336 335 334 332 328 325 326 326 328 329 329 331 331 331 332 332 332 332 332 333 333 335 335 335 337 338 338 338 337 336 337 338 338 337 337 337 336 334
331 334 339 341 342 342 342 336 337 340 333 329 323 318 318 315 320 328 333 338 340 341 341 341 341 341 342 341 341 341 340 339 338 337 337 337 338 338 337 336 336 336 336 335 335 336 335 335 334 334 332 329 327 327 327 327 328 330 332 331 331 331 331 331 331 331 332 333 334 336 336 337 338 338 338 337 337 338 338 338 338 337 335 334 333
330 334 340 342 343 341 343 337 337 341 336 331 324 319 319 318 317 318 321 326 330 335 339 340 340 341 340 340 340 340 339 338 337 337 338 337 337 336 336 335 334 335 335 333 334 335 334 335 333 332 332 331 329 329 329 327 329 331 332 332 331 331 331 330 330 331 332 333 335 336 336 337 337 338 338 338 338 338 338 338 337 335 333 332 331
331 335 339 341 342 341 343 339 337 340 339 334 327 322 320 320 320 319 318 318 318 320 326 331 334 337 338 338 339 339 339 337 337 338 338 337 336 335 334 334 332 333 334 333 334 333 331 333 333 331 332 332 331 329 329 328 330 331 331 331 330 331 330 330 330 331 332 334 336 337 337 337 337 338 338 338 338 337 337 336 335 332 331 330 329
330 335 339 340 340 342 342 340 338 339 341 337 330 326 322 322 323 323 323 322 320 316 316 320 322 325 328 331 335 337 338 338 337 337 337 336 336 334 334 334 332 332 333 332 333 331 326 332 334 332 330 331 330 327 328 328 329 331 330 331 330 330 330 330 331 331 332 334 336 337 337 337 337 338 338 338 337 336 336 334 332 330 329 329 329
330 334 338 339 340 342 341 341 338 338 341 339 334 330 326 324 325 325 325 325 325 322 320 320 321 321 321 322 325 329 331 333 333 336 336 335 335 334 334 335 334 332 332 330 332 330 325 329 333 332 329 330 330 326 327 327 327 330 330 330 330 329 330 331 330 331 332 334 337 337 337 337 337 338 338 338 336 335 333 331 330 329 328 328 328
331 333 336 338 339 341 340 342 339 337 341 340 337 333 331 328 327 328 327 328 327 326 325 324 324 324 325 324 323 322 324 325 327 332 334 334 334 333 334 335 335 334 331 330 331 331 326 325 329 330 329 330 330 326 325 325 326 329 330 330 330 331 331 330 330 332 332 333 337 337 337 337 337 337 337 336 334 332 331 331 330 328 328 327 328
333 332 334 337 339 341 340 341 340 337 338 340 339 335 335 333 331 330 329 329 328 329 328 327 327 326 327 327 326 325 324 324 326 331 332 334 335 333 334 334 335 334 331 330 330 330 328 325 328 329 328 329 328 325 323 323 327 329 330 330 331 331 331 329 330 332 332 333 336 337 337 337 336 337 336 333 330 330 332 331 329 328 328 328 327
338 336 334 336 338 341 340 340 340 339 338 339 340 337 336 335 334 333 332 331 330 330 330 330 329 329 328 328 328 328 328 326 327 330 331 332 333 333 333 332 333 334 332 330 329 329 329 326 328 329 328 329 327 324 323 325 327 329 329 330 331 330 329 329 331 332 333 334 336 336 336 336 335 336 335 331 331 333 333 331 329 328 328 327 326
339 339 337 336 338 340 342 341 339 340 339 338 340 338 337 337 337 335 335 334 332 331 331 331 331 331 330 330 329 329 330 329 327 328 330 330 330 331 331 330 330 332 332 330 329 328 327 327 327 328 329 329 328 323 322 325 326 328 329 329 329 328 329 331 332 333 333 334 335 336 335 335 335 336 334 332 333 334 332 330 329 327 327 326 325
338 337 337 337 337 339 341 341 340 340 341 340 339 338 338 337 338 337 337 336 335 334 332 332 332 332 332 332 331 331 331 331 330 328 327 327 327 329 329 330 329 330 331 330 329 328 327 327 326 327 328 328 327 323 322 326 326 327 329 328 328 327 330 332 333 333 334 335 335 335 334 334 334 335 334 333 333 333 331 330 328 327 326 326 325
340 338 337 336 337 339 340 341 340 340 341 342 341 340 339 339 338 338 338 338 337 336 335 333 332 333 332 333 332 333 332 331 332 329 327 326 326 327 327 328 330 331 331 330 329 327 328 327 326 326 327 326 326 323 324 327 325 327 328 326 327 328 331 333 333 333 334 336 335 334 333 333 334 335 334 333 333 333 331 329 327 326 326 326 324
341 340 339 338 338 338 339 340 340 340 341 342 342 343 341 341 339 339 339 339 339 337 337 336 334 334 333 334 333 334 333 332 332 330 329 329 329 329 328 326 328 331 331 331 329 327 328 326 325 326 326 325 325 323 325 327 325 327 327 325 327 328 331 333 332 333 334 335 335 334 333 333 335 336 334 333 334 332 330 328 326 326 325 325 324
340 340 340 339 339 338 339 339 340 340 341 341 342 343 343 342 341 340 340 339 340 339 338 338 336 335 334 334 334 334 334 334 333 333 332 332 332 330 328 325 325 330 332 332 330 328 327 326 326 326 325 324 323 323 325 326 326 326 325 324 327 328 331 332 331 333 334 334 335 334 333 334 335 336 335 333 333 331 329 328 326 326 326 325 323
340 341 341 340 340 339 338 339 340 340 341 341 341 342 343 343 342 341 340 340 340 340 339 339 338 337 335 335 336 335 335 335 334 334 334 333 333 330 327 326 323 328 332 332 330 329 327 327 327 326 324 322 321 323 324 324 325 326 324 323 326 329 331 332 332 331 333 334 334 334 334 335 334 335 335 334 333 330 328 326 326 326 326 324 323
340 340 340 340 340 339 339 339 339 339 341 342 342 342 342 343 343 342 341 341 340 340 340 339 339 338 337 336 336 337 336 336 335 335 335 334 334 331 327 326 324 326 332 332 330 330 329 328 328 326 325 321 319 324 324 323 324 324 323 322 325 328 329 331 332 332 331 332 333 334 334 334 335 334 334 334 332 330 327 326 327 326 325 324 323
338 339 339 340 340 340 340 340 339 339 340 341 342 342 342 343 343 343 343 341 341 340 340 340 339 339 338 337 337 337 337 337 336 335 336 335 335 334 329 327 325 325 329 332 330 330 330 329 328 326 325 322 319 323 325 324 324 324 322 321 323 326 328 329 331 332 332 331 332 334 334 334 335 335 334 333 332 330 327 326 327 326 324 323 324
338 338 338 339 339 339 340 340 340 340 340 340 342 342 343 343 343 344 343 342 342 341 340 340 340 340 339 339 338 338 337 337 337 336 336 336 336 336 333 330 326 324 327 330 330 330 330 329 329 326 324 324 321 321 323 324 325 325 324 321 322 324 325 327 329 331 332 331 331 333 334 334 335 335 334 333 331 329 326 326 327 325 324 324 324
338 338 338 339 338 339 339 339 340 340 340 340 341 342 342 342 343 343 343 343 342 342 341 341 340 340 340 339 339 338 338 338 337 336 337 337 337 337 336 332 329 325 325 328 329 330 331 330 329 327 325 325 324 322 322 323 325 325 325 322 322 322 322 323 326 329 330 331 331 332 334 334 334 335 334 333 330 327 326 326 327 325 324 324 324
338 337 338 338 338 339 338 339 340 340 340 340 340 341 342 342 342 342 343 342 342 342 341 341 341 341 340 340 339 339 339 338 337 337 337 337 337 337 337 335 331 328 327 327 329 329 331 330 329 328 326 325 325 324 322 323 325 326 325 324 322 322 321 320 322 326 328 331 331 332 333 334 334 335 334 332 329 328 326 326 327 325 324 325 324
336 337 338 338 339 339 339 339 339 340 340 340 340 340 341 342 342 342 342 342 342 341 341 341 340 341 341 340 339 340 339 338 337 337 336 336 336 337 337 337 334 331 329 328 328 330 331 330 329 329 327 326 326 326 324 323 324 326 326 326 324 323 322 320 319 322 324 328 331 332 332 334 334 335 334 331 329 329 326 325 325 324 324 325 324
335 336 337 338 339 339 339 339 338 339 339 339 339 339 339 340 342 342 342 342 342 341 341 340 339 340 341 340 340 340 339 338 338 337 336 335 335 337 337 338 336 334 331 330 329 329 330 330 329 329 328 327 326 326 326 325 324 325 326 326 326 324 323 321 319 319 321 323 328 332 332 333 334 335 333 330 330 328 326 326 325 323 324 325 324
334 335 336 337 338 339 339 339 339 339 339 339 339 338 338 338 340 342 342 342 342 341 341 340 339 339 340 340 340 339 339 338 338 338 337 335 335 336 337 337 337 336 334 332 330 329 330 330 330 329 329 328 327 326 327 327 326 325 325 326 326 325 324 322 320 318 319 320 324 329 332 333 334 334 332 329 329 328 326 326 325 324 324 324 324
333 334 335 336 337 338 339 340 339 339 339 339 338 338 338 338 338 339 340 341 342 342 340 340 338 338 339 340 340 339 338 338 338 338 337 336 336 337 336 335 337 337 335 333 331 330 329 330 330 330 329 329 328 328 327 327 328 327 326 326 325 325 325 324 321 320 320 319 320 324 330 333 334 334 331 329 330 327 327 327 324 324 324 324 324
332 332 334 336 336 337 338 339 340 340 339 338 338 337 338 338 339 338 338 338 340 341 340 340 339 338 338 339 339 338 337 336 337 338 337 335 336 337 336 334 336 337 337 335 333 331 330 329 330 330 330 329 329 329 328 328 328 328 328 327 325 325 325 324 323 322 321 320 319 320 324 330 334 334 332 330 329 328 328 327 324 324 325 325 324
330 330 333 335 336 336 337 338 339 340 339 339 338 337 337 338 338 339 338 338 338 339 339 339 339 339 339 338 338 338 337 336 337 338 337 336 336 337 336 335 336 337 337 336 334 332 331 330 330 330 330 330 330 330 329 329 329 329 329 329 327 325 324 325 324 323 322 321 320 320 320 324 330 333 333 329 328 329 329 328 325 324 325 325 324
327 329 333 334 335 335 336 337 338 338 339 339 338 337 337 337 337 338 338 339 338 338 339 338 338 339 339 340 340 339 339 337 337 337 338 338 337 337 336 335 336 337 337 337 335 332 331 331 330 330 330 330 331 331 330 330 330 329 329 329 329 327 325 325 324 324 323 322 321 320 319 319 323 329 332 330 328 329 328 328 326 324 325 325 324
324 328 330 331 333 334 335 336 337 338 338 337 337 337 337 337 337 337 338 339 338 338 340 340 339 338 338 339 340 340 340 339 337 335 336 337 337 337 336 336 336 336 335 336 335 333 332 331 331 331 331 331 331 332 331 331 331 331 330 330 330 329 328 326 325 324 324 324 322 322 320 319 318 323 330 331 329 329 328 328 327 324 325 324 324
321 322 323 326 330 332 333 335 335 336 337 336 336 336 336 337 337 337 337 337 338 338 338 339 339 338 337 337 338 339 339 338 336 334 335 336 336 336 336 335 335 334 334 335 335 334 333 332 332 332 332 332 331 331 332 332 331 331 331 331 330 330 330 329 327 325 325 325 324 324 322 321 319 319 325 331 330 328 329 328 326 325 325 324 325
317 317 318 320 322 325 328 332 334 335 335 335 335 335 336 337 337 337 336 336 337 337 337 337 337 337 337 337 337 337 336 336 334 334 334 335 335 335 335 334 334 333 333 334 334 334 335 334 333 333 332 332 331 331 331 332 332 331 331 331 331 330 330 330 329 328 326 325 324 325 324 322 321 319 322 329 331 328 328 328 326 326 325 324 325
315 315 316 316 316 318 320 325 330 333 334 334 334 334 335 336 337 337 337 337 337 336 336 336 336 336 336 336 335 335 334 335 334 335 334 335 335 334 334 333 332 333 334 335 335 335 336 335 334 334 333 332 331 331 332 332 332 332 331 331 330 330 330 330 330 329 328 327 325 324 324 323 323 321 320 325 331 329 328 329 327 326 325 324 325
312 313 314 314 314 314 315 317 321 327 330 332 332 333 335 336 337 337 336 336 336 337 336 335 335 336 336 335 334 334 334 334 334 334 333 334 336 336 335 335 334 334 335 336 335 335 335 334 334 334 334 333 332 331 332 332 332 332 331 331 330 330 330 330 329 328 328 328 327 325 325 324 323 323 320 322 328 330 328 329 327 325 324 324 325
307 309 310 311 312 312 313 313 314 318 323 328 330 331 334 335 335 336 336 335 335 336 336 337 336 335 335 334 333 333 333 333 333 332 332 335 337 337 337 336 336 335 335 334 333 333 333 333 334 333 333 333 332 332 332 332 332 332 331 331 331 330 330 330 329 328 328 327 327 327 326 325 324 323 322 320 324 329 329 328 327 325 324 324 324
304 305 306 307 309 311 312 312 313 313 316 322 326 328 330 333 334 335 335 335 335 335 336 336 335 335 335 334 333 333 332 332 331 332 334 336 337 336 336 335 334 333 332 332 331 331 332 333 333 333 332 332 332 332 332 332 331 331 331 331 331 330 330 330 330 329 328 327 327 327 327 326 325 324 324 322 321 326 329 329 328 326 325 324 323
304 304 304 305 306 308 310 311 312 312 312 315 320 323 325 328 330 331 331 333 334 335 335 335 335 335 335 334 334 333 332 332 331 332 334 336 335 334 333 332 331 331 330 331 330 331 332 332 332 332 331 331 332 331 331 331 330 330 330 330 330 330 330 329 329 329 328 327 327 327 327 327 326 325 325 324 322 323 328 329 328 327 325 324 323
304 304 304 304 305 306 308 310 311 311 311 311 314 318 321 323 324 325 326 329 332 332 332 333 333 334 334 334 334 333 333 332 331 331 332 333 332 331 330 329 330 329 329 329 329 330 330 330 330 330 331 330 331 331 330 330 329 329 329 329 329 329 329 329 328 328 328 328 327 327 327 327 327 327 326 326 323 322 325 328 328 327 326 324 324
304 304 304 304 305 305 307 308 309 310 310 310 310 313 318 320 322 323 324 326 328 329 331 332 332 332 333 333 333 332 331 331 329 327 327 328 327 327 326 326 328 328 329 329 329 329 327 327 328 329 330 330 330 330 330 330 329 328 327 327 327 327 327 327 327 327 327 327 328 327 327 326 326 327 326 326 325 323 325 328 328 327 326 324 324
304 304 304 305 305 305 306 307 308 309 310 310 309 310 313 316 319 322 323 324 324 326 329 330 331 331 330 330 330 328 326 325 325 324 323 322 322 322 322 324 325 326 329 330 330 328 326 326 327 328 328 328 329 329 329 329 328 328 327 327 328 327 327 325 324 326 326 326 327 327 327 326 326 326 326 326 325 324 325 327 328 327 326 325 324
304 304 304 305 305 305 306 306 308 309 309 309 309 309 310 312 314 317 319 320 320 322 324 324 325 327 327 327 324 320 318 317 319 320 320 319 319 319 320 322 324 325 327 330 329 327 325 325 325 327 328 327 328 328 328 328 328 328 327 325 324 325 328 325 321 324 325 325 326 326 326 326 326 326 326 326 326 325 325 326 328 327 327 326 324
304 304 305 305 305 305 306 306 307 308 309 309 309 309 309 310 311 312 313 314 314 314 315 316 317 319 320 320 317 314 313 314 316 318 318 318 318 318 318 320 322 324 326 327 328 327 326 325 324 324 327 327 327 327 327 327 328 328 326 325 323 324 328 323 320 323 323 323 325 325 325 326 326 326 326 326 326 326 326 326 327 327 326 326 325
303 304 305 305 306 306 306 306 307 307 308 309 308 308 308 309 310 310 309 309 309 310 310 312 313 314 314 313 313 312 312 314 315 316 316 317 317 317 317 318 319 322 324 326 328 328 327 326 325 324 326 328 327 326 326 326 326 327 327 327 326 325 324 320 321 325 322 321 323 323 324 325 325 326 326 326 326 326 326 326 326 326 326 325 324
302 303 304 305 305 306 306 306 306 307 308 308 308 308 308 308 308 309 309 309 309 309 309 311 311 311 311 311 311 311 311 313 314 315 316 316 316 316 316 317 318 319 322 324 326 326 324 323 325 327 327 327 326 325 324 323 323 324 324 325 325 325 323 321 323 324 323 322 321 320 322 323 324 325 325 325 325 325 325 325 325 325 325 325 324
302 302 303 304 305 305 305 306 306 306 307 308 308 308 308 307 308 308 309 309 309 309 309 310 310 309 309 310 310 310 310 312 313 315 316 316 316 316 317 317 318 319 320 321 321 321 321 322 326 328 326 324 323 322 322 322 321 321 321 321 322 324 323 322 322 322 322 322 320 319 320 321 322 323 324 324 323 323 323 322 323 323 324 324 324
302 302 302 303 304 304 305 305 305 306 307 307 308 308 308 308 307 307 308 308 309 309 309 309 309 309 309 309 309 309 309 310 313 314 315 315 315 316 316 317 318 318 319 320 320 321 324 326 327 326 324 323 322 322 322 322 320 319 317 317 318 320 320 321 321 320 320 320 321 321 320 319 320 321 321 322 322 322 321 320 320 321 322 323 323
301 301 302 302 303 304 305 305 305 306 306 307 307 307 308 308 307 307 307 308 308 308 308 308 308 308 308 308 308 308 308 310 312 313 313 313 313 313 313 314 315 317 318 320 321 323 325 325 325 324 323 322 323 322 321 319 316 315 314 314 315 317 318 320 319 319 319 319 320 320 319 319 319 319 317 317 318 319 318 318 318 319 320 322 322
300 300 301 301 302 303 304 304 305 305 306 306 306 307 307 308 307 307 307 307 308 308 307 307 307 308 308 308 308 308 308 309 310 311 312 311 311 311 312 313 314 316 319 321 322 323 324 324 323 323 322 322 321 319 317 315 313 313 313 313 314 315 316 318 318 318 319 318 319 318 317 317 317 317 315 314 315 316 316 317 318 318 318 320 321
Wind_Speed
26 29 28 25 23 21 20 18 17 17 17 18 18 17 17 17 19 19 18 18 18 19 18 16 15 14 13 14 15 15 15 15 16 15 15 16 17 16 17 17 16 15 13 12 11 11 10 10 11 12 13 15 15 14 12 11 12 13 13 13 13 12 11 11 11 10 10 11 10 11 10 10 10 11 12 13 14 13 14 17 21 21 21 19 18
33 32 29 26 24 22 21 19 17 18 17 17 18 18 17 17 19 20 19 19 19 19 17 17 16 16 15 15 16 17 16 16 16 16 16 16 16 17 18 17 15 12 11 10 9 10 10 10 11 12 13 15 15 13 11 10 12 12 12 12 12 12 10 9 9 8 9 10 10 10 10 9 10 12 13 14 16 15 16 20 23 23 24 22 21
35 34 31 28 26 22 22 20 18 18 18 17 18 19 18 17 19 19 19 19 19 19 18 17 16 17 16 16 16 17 17 16 16 16 16 16 17 17 17 15 12 10 10 10 9 10 9 9 10 11 13 14 13 12 9 10 12 11 11 12 12 11 9 8 8 7 8 10 10 10 10 10 11 13 14 16 18 18 19 21 22 23 23 22 22
35 35 32 29 27 23 23 21 19 19 18 17 17 18 19 18 18 19 19 18 19 19 18 17 17 17 17 17 16 17 17 16 16 15 16 18 17 16 14 12 10 10 10 10 9 9 9 9 10 11 13 12 11 11 8 9 11 10 11 12 11 11 8 8 7 7 8 9 9 9 10 10 11 14 17 20 20 20 20 20 21 21 21 20 20
36 36 33 30 28 25 23 23 20 19 19 17 17 18 19 18 18 18 18 18 18 19 18 17 16 17 17 17 16 16 17 16 16 16 17 17 15 13 12 10 10 10 10 9 9 9 9 9 9 10 10 9 9 9 7 9 11 11 11 10 11 10 9 7 5 6 7 7 7 7 10 10 12 16 19 21 22 21 20 20 20 19 18 18 19
38 36 33 31 28 28 25 25 22 19 19 18 17 18 19 18 18 18 19 18 17 17 17 17 16 16 16 16 15 16 17 17 17 16 16 15 13 11 10 9 10 10 9 9 9 9 9 8 8 8 7 6 8 8 6 9 11 11 11 9 9 10 9 6 5 5 6 6 6 7 9 10 13 17 20 22 22 21 20 19 18 18 17 17 18
38 36 34 31 30 29 26 27 24 21 20 19 18 18 19 18 18 17 18 18 18 17 16 16 16 15 15 15 15 15 16 16 16 15 14 12 11 10 9 9 9 10 8 8 9 7 6 7 7 8 6 5 6 6 6 9 11 11 11 9 9 9 8 6 5 5 4 5 5 6 9 10 13 17 19 21 21 20 18 17 16 16 15 15 16
37 36 34 31 30 30 27 27 25 23 21 20 19 18 19 18 18 17 16 16 17 17 17 16 15 15 14 14 14 14 15 15 15 14 12 10 9 9 9 8 9 10 7 6 7 7 5 5 5 4 5 6 6 6 7 9 11 11 10 9 9 9 7 6 5 4 4 5 5 6 9 11 14 16 17 19 19 18 17 16 15 14 14 14 16
37 36 34 32 31 30 28 27 26 24 22 21 20 19 19 19 18 17 16 15 15 15 16 17 16 15 14 14 14 14 14 14 14 12 10 9 9 8 8 8 8 9 8 7 7 6 3 4 3 3 5 7 7 6 7 9 10 10 10 10 9 9 7 6 4 3 3 5 5 7 11 12 14 15 15 17 17 16 15 14 13 13 13 13 13
37 35 34 33 32 31 28 27 26 25 23 22 22 20 19 19 18 17 17 16 15 15 15 16 16 16 15 15 14 13 13 13 12 11 10 9 8 7 7 7 8 9 9 6 7 4 1 4 5 5 5 6 6 5 5 8 9 11 11 10 9 9 7 5 2 1 3 4 5 8 12 14 15 14 15 16 16 15 13 12 11 11 11 11 13
36 35 34 33 32 31 29 27 26 26 23 22 23 21 20 19 18 18 17 16 16 15 15 15 15 15 15 15 14 14 13 13 13 11 10 9 9 8 7 7 8 10 9 6 6 5 3 6 5 5 4 4 5 3 4 8 11 12 11 10 10 9 6 3 1 1 2 3 5 9 14 16 16 15 15 15 14 13 11 11 11 11 11 12 14
35 35 33 32 32 30 29 28 27 26 23 22 23 23 22 20 19 18 17 17 16 16 15 15 14 14 13 13 13 13 13 13 13 12 11 10 9 8 7 7 8 9 8 6 7 7 5 5 4 3 3 3 4 2 2 9 13 12 11 11 12 9 5 1 2 1 2 3 7 12 16 16 16 15 14 13 11 11 11 11 11 10 11 13 12
34 34 33 32 31 30 30 28 27 27 25 23 23 24 23 21 20 19 18 17 16 16 16 16 15 14 13 12 12 12 12 12 12 12 12 11 10 9 8 8 9 9 7 6 7 6 5 4 4 5 4 5 3 1 2 10 13 11 11 12 11 8 3 2 2 0 2 3 9 15 16 17 16 13 11 11 11 11 11 10 10 10 11 12 11
33 33 33 32 31 30 29 29 27 26 26 25 23 24 24 22 22 20 19 18 17 16 16 16 15 15 14 13 12 11 11 11 12 12 12 12 11 11 10 10 11 11 8 7 7 6 5 4 5 6 5 6 4 3 5 10 13 11 11 12 10 6 3 2 2 2 2 4 12 16 16 16 15 12 9 10 11 10 10 8 7 10 10 11 11
30 32 33 33 32 30 29 28 27 26 26 26 24 24 24 23 23 22 20 19 18 17 16 15 14 14 14 13 12 11 11 10 10 12 12 11 11 11 10 10 12 13 9 8 9 7 6 5 5 6 6 6 5 5 7 11 12 11 11 12 8 5 3 2 3 3 3 6 12 16 16 15 13 11 10 11 12 11 9 7 5 9 11 11 12
27 29 31 32 32 31 30 29 28 27 26 26 25 24 24 24 23 23 22 21 20 19 18 16 15 15 14 13 13 12 11 10 9 10 11 11 11 10 9 9 11 13 11 9 10 8 8 7 5 6 7 7 5 5 9 12 12 11 11 10 7 5 3 2 5 3 4 8 12 15 15 13 12 11 11 11 12 11 9 8 7 11 11 11 11
25 26 29 31 32 31 31 30 29 28 27 27 26 25 25 25 24 24 23 22 22 21 19 18 17 16 15 14 13 13 12 11 10 10 10 9 9 9 8 8 10 13 12 10 10 9 9 7 6 5 6 6 5 6 11 13 11 11 11 9 7 5 3 4 6 3 4 10 13 14 12 11 12 11 11 11 11 10 8 7 9 10 10 11 11
24 25 27 29 31 31 32 31 30 29 29 28 27 27 26 26 25 25 24 23 22 22 21 20 19 17 16 15 14 13 12 12 11 10 10 8 7 7 7 7 10 13 14 12 11 9 9 8 6 5 5 5 5 9 12 13 11 11 10 8 8 5 3 5 6 4 4 9 14 13 9 9 12 11 10 10 11 9 7 7 9 10 10 12 11
23 25 25 27 29 30 31 31 31 31 30 30 30 29 28 27 27 26 25 24 23 22 22 21 20 19 17 16 15 14 12 12 11 11 10 8 7 6 6 6 9 14 15 13 11 10 9 8 6 5 4 4 7 10 12 11 10 10 9 8 9 6 3 5 6 7 6 8 12 11 9 11 13 13 11 11 11 8 7 7 9 10 11 11 10
23 24 25 26 28 29 30 31 31 32 32 32 31 31 30 29 28 27 26 25 24 23 22 21 20 19 18 17 15 14 13 13 12 12 10 9 7 6 7 6 8 14 16 14 12 10 9 8 7 5 3 4 8 11 12 11 10 10 9 8 9 6 4 4 5 7 8 9 11 11 11 11 12 12 13 13 11 8 7 8 10 11 10 9 9
23 24 25 25 27 28 29 30 31 32 33 32 32 32 31 30 29 28 27 27 25 24 24 23 22 20 20 19 17 16 15 14 14 13 12 10 9 7 8 7 7 13 16 14 13 11 10 9 7 5 4 5 9 11 11 11 10 10 10 9 9 8 6 4 4 6 8 10 12 12 13 13 12 12 13 14 11 9 8 9 11 11 9 9 10
24 25 26 26 27 28 29 29 30 31 32 32 32 32 31 30 29 29 28 28 27 26 25 24 23 22 21 20 19 19 17 16 15 14 13 12 10 8 8 8 7 11 16 15 14 12 11 10 8 6 5 6 10 11 11 12 11 11 11 11 10 10 8 6 4 5 6 8 11 13 14 14 14 14 13 13 12 11 9 9 12 10 9 10 11
25 27 29 29 28 28 29 30 31 31 32 32 32 31 31 31 30 29 29 28 28 27 27 26 25 24 23 22 22 21 19 18 16 15 14 13 12 10 9 9 9 10 14 15 14 12 12 11 9 7 6 7 10 12 12 13 13 12 13 12 12 11 10 9 7 6 7 8 10 13 15 16 16 15 12 13 14 14 11 10 12 8 8 11 11
29 30 30 29 29 29 30 31 31 31 31 32 32 32 31 31 32 31 30 30 29 29 28 27 26 26 25 24 23 22 21 19 18 16 15 14 14 13 11 10 10 11 13 15 15 14 12 12 11 9 9 9 10 12 13 13 13 13 15 14 14 13 13 12 10 8 8 9 10 13 16 18 18 16 15 15 14 15 13 12 12 8 9 12 11
30 28 28 30 31 30 30 31 32 31 32 33 33 33 32 32 32 32 32 31 30 30 29 29 28 27 26 25 24 23 22 21 19 18 17 16 16 16 15 13 13 13 14 15 16 15 14 14 13 12 12 11 11 12 13 14 13 14 15 16 16 15 15 14 13 12 10 10 10 11 15 18 20 17 16 16 13 13 13 13 13 10 10 12 11
25 27 30 32 32 31 31 32 32 32 32 33 33 34 33 32 32 33 32 32 32 31 31 31 29 28 27 26 25 24 23 22 21 20 18 18 18 18 17 17 16 15 15 16 17 17 16 16 16 15 14 14 13 13 14 14 14 14 15 16 17 17 17 16 15 15 13 12 10 9 12 16 20 19 16 15 14 14 14 14 14 11 11 12 12
28 30 31 31 32 31 31 32 33 33 32 33 33 33 34 33 32 33 33 33 32 32 32 32 31 29 28 27 26 25 25 24 23 22 21 20 20 20 19 19 18 18 17 17 18 18 18 18 17 17 16 15 15 15 15 15 15 15 15 16 17 17 17 17 17 16 16 15 12 10 11 14 19 19 15 14 14 15 13 14 14 12 12 12 12
29 30 31 31 33 33 33 33 33 34 33 33 33 33 33 34 33 33 33 33 33 33 33 33 32 31 30 29 28 27 26 25 25 25 23 22 22 21 20 20 20 20 20 20 20 20 20 20 19 18 18 17 17 16 16 17 16 16 16 16 17 17 17 17 18 17 17 17 15 12 12 15 19 19 15 14 14 16 14 15 14 12 14 13 13
29 32 32 33 34 34 34 34 34 34 34 34 33 33 33 33 34 34 35 34 33 33 33 33 33 32 31 30 29 28 28 27 26 26 25 25 24 23 21 21 22 23 23 23 23 22 22 22 22 21 20 19 19 18 18 18 18 18 18 18 17 18 18 18 18 18 17 17 17 15 13 14 17 18 16 15 15 17 17 17 15 13 15 15 14
32 32 32 35 36 35 36 36 35 35 35 34 33 33 33 34 34 35 36 36 35 34 33 33 32 33 33 32 31 30 30 29 28 27 27 26 26 26 24 23 24 25 25 25 26 24 24 24 24 24 23 22 21 20 20 20 20 20 20 19 19 18 18 19 18 18 18 18 18 18 15 14 15 17 18 17 18 18 18 19 17 16 17 16 16
32 30 33 36 36 37 38 38 36 35 35 34 34 34 34 34 35 35 35 36 36 35 36 35 33 33 33 34 33 33 32 31 30 28 28 28 28 28 27 26 25 25 25 26 28 27 26 25 25 25 25 24 23 22 21 21 21 22 22 21 20 19 19 19 19 20 19 19 19 19 18 16 16 17 20 21 20 19 20 19 17 17 18 17 16
32 33 37 37 36 38 39 39 37 36 36 36 35 35 35 35 35 35 35 36 36 36 36 36 37 36 34 33 33 33 35 33 31 30 29 30 30 30 29 28 26 25 24 25 27 28 28 27 26 25 25 24 24 23 23 23 23 23 24 23 22 21 20 19 20 20 21 21 20 20 21 20 18 19 21 22 22 20 21 20 19 19 20 19 17
35 38 38 36 38 39 40 40 39 39 38 37 37 36 36 36 35 36 36 36 37 37 36 35 37 38 37 36 35 34 34 33 31 31 31 31 31 31 30 29 27 25 24 24 25 28 29 28 27 26 25 25 24 24 24 25 25 25 25 25 24 23 23 21 21 21 21 22 22 22 22 22 21 20 21 23 24 22 21 22 22 20 20 20 18
35 36 36 37 39 40 39 40 40 41 40 39 39 38 37 37 36 36 36 37 37 38 39 38 37 37 37 38 37 37 36 35 33 32 32 32 31 31 30 29 28 25 23 23 23 25 28 29 28 27 26 26 25 25 25 26 27 27 27 27 26 25 25 24 23 23 22 22 23 23 23 23 23 23 22 23 26 25 24 25 25 22 21 21 20
34 34 36 38 40 39 39 41 42 42 42 41 40 40 39 38 38 37 37 37 37 38 38 40 39 39 38 38 37 37 37 36 34 32 32 32 31 30 30 29 28 26 24 24 23 25 28 29 28 27 26 27 26 26 26 27 27 27 28 28 27 27 26 27 26 25 24 24 24 24 24 24 24 24 24 24 27 28 27 28 28 25 23 22 22
35 36 36 36 37 38 39 41 42 43 43 43 42 42 41 40 40 39 37 37 37 38 38 38 39 40 40 39 38 37 37 36 35 34 33 32 32 31 30 29 28 27 26 26 26 26 28 29 28 28 27 27 27 26 27 27 28 28 28 28 28 28 28 28 27 27 27 26 26 26 26 26 26 25 25 24 27 31 30 30 30 28 25 24 24
34 36 34 34 35 37 39 40 42 44 45 45 45 44 43 42 41 40 39 38 37 38 37 37 38 40 41 40 40 39 38 37 36 35 33 33 33 32 30 29 29 28 27 27 27 27 27 28 27 27 28 28 27 27 27 27 28 28 28 28 29 29 29 29 28 28 28 29 28 28 27 27 27 27 26 26 28 32 33 31 31 31 29 26 26
33 33 33 34 35 36 38 40 42 44 45 46 46 45 44 43 42 42 41 40 40 39 38 37 37 39 40 41 40 39 39 38 36 34 33 34 34 32 31 30 29 28 28 28 28 27 27 28 27 28 28 29 28 27 27 27 27 27 28 29 30 30 30 30 29 27 28 29 30 30 30 30 29 29 28 28 29 32 34 33 33 33 31 29 29
34 34 34 34 34 35 37 39 41 43 45 45 45 44 43 42 42 41 41 41 41 40 39 38 36 37 38 39 39 38 38 37 35 34 35 36 34 32 32 31 30 29 28 28 28 28 28 29 28 28 28 29 28 27 27 26 25 26 27 28 30 31 31 29 28 27 28 29 30 31 32 31 31 31 31 30 30 32 35 36 35 35 35 33 32
35 34 34 33 33 35 36 39 42 42 42 42 41 40 39 39 39 38 38 40 42 41 40 39 37 38 39 38 37 36 36 35 34 34 36 36 35 33 32 31 31 30 29 29 29 29 29 29 28 28 27 27 28 28 26 24 25 26 27 29 30 30 31 30 29 28 28 29 30 32 33 33 32 33 33 32 32 33 35 38 39 38 37 35 34
32 32 32 33 35 36 37 40 42 41 41 40 40 39 39 37 36 36 38 39 42 41 40 40 39 40 40 39 38 37 36 35 34 35 36 36 35 34 32 31 30 30 30 30 29 29 28 28 27 28 27 26 26 27 26 24 22 21 20 24 27 29 29 30 30 30 30 30 31 32 33 33 34 35 36 35 34 34 36 39 41 41 40 38 37
30 31 32 34 36 37 39 40 40 41 42 43 42 43 43 42 40 40 41 41 42 43 43 43 43 42 41 40 39 39 37 36 36 36 37 36 35 33 33 32 31 31 31 30 30 29 28 27 27 27 27 27 25 24 26 24 18 15 12 11 14 18 22 25 27 30 31 32 33 33 34 34 35 36 38 37 36 36 38 40 42 42 42 42 40
31 32 32 34 35 37 38 39 39 41 42 43 44 44 45 46 45 44 43 42 42 44 45 45 45 44 43 42 41 40 39 38 38 38 38 37 36 35 34 33 32 31 31 30 30 29 27 27 28 27 25 25 25 24 25 24 19 16 11 7 4 5 10 15 22 29 32 33 33 33 34 34 35 37 38 37 37 38 39 41 43 44 45 45 43
31 31 31 32 35 36 38 39 40 42 42 43 45 45 45 45 45 43 41 40 39 41 43 42 43 44 44 44 43 42 41 40 40 40 39 38 37 36 35 34 33 32 31 31 30 29 30 29 29 30 27 23 23 24 25 25 24 19 8 2 2 2 4 6 12 22 28 32 33 32 34 35 37 38 38 38 38 39 41 43 44 45 47 46 46
30 32 32 34 36 38 39 40 41 42 42 43 44 43 42 41 39 34 31 31 30 31 35 36 37 40 43 45 45 44 42 41 41 41 40 39 39 37 36 35 34 33 33 32 31 30 32 31 29 31 31 27 24 22 22 22 24 24 15 5 2 2 3 1 2 8 15 23 28 31 33 33 34 36 38 39 40 40 41 43 44 45 46 47 46
30 33 35 36 37 38 38 38 40 41 40 41 42 41 41 38 36 32 29 27 26 28 33 36 38 42 44 43 43 43 42 41 41 42 42 41 40 38 37 36 35 35 34 33 32 31 31 30 30 32 33 31 25 20 20 20 20 23 24 18 11 6 3 1 1 2 5 11 18 25 30 32 31 30 30 33 38 42 43 44 45 46 47 47 47
31 32 33 35 36 36 36 37 39 40 41 41 41 41 40 39 38 38 36 34 31 32 36 40 43 44 43 41 41 41 41 42 43 43 43 42 40 39 38 38 37 36 36 35 34 34 32 30 31 32 30 28 26 22 22 22 20 21 25 25 23 18 12 7 3 1 3 5 9 14 20 27 30 29 25 24 29 34 38 41 44 45 46 46 46
28 29 30 32 33 35 36 37 38 39 39 39 40 41 41 40 40 40 40 40 38 37 38 40 41 39 39 40 40 40 42 43 45 45 43 42 41 40 40 39 38 37 36 36 35 33 33 32 33 31 29 28 27 26 26 24 21 21 22 24 24 22 19 15 11 7 4 3 6 7 11 16 23 27 26 24 23 23 25 28 32 38 43 45 46
24 25 28 30 32 35 36 36 36 37 37 37 38 41 43 43 42 41 40 40 40 39 38 38 38 36 37 39 39 41 43 45 46 45 44 43 42 42 41 40 39 38 37 36 34 33 32 34 35 33 30 29 28 28 28 26 25 23 21 19 20 21 20 18 16 13 8 6 5 5 7 9 11 18 21 21 22 22 23 23 24 30 37 43 47
26 26 29 30 31 33 35 36 38 38 38 39 40 42 44 44 43 42 41 39 38 37 35 35 35 35 36 37 39 41 43 45 46 45 45 44 43 43 42 41 39 38 37 35 34 34 34 35 34 32 30 29 29 28 28 27 26 25 23 20 18 17 15 13 14 14 11 8 7 4 6 8 9 16 22 22 22 24 26 26 25 27 33 38 43
29 29 29 29 31 33 34 37 39 39 39 40 41 42 44 45 45 44 43 42 39 37 35 34 34 35 37 38 40 42 43 43 44 44 45 44 44 43 42 40 39 37 37 36 35 34 34 34 32 31 30 30 29 29 28 27 25 24 24 23 21 20 16 12 14 16 11 8 7 4 7 12 12 17 24 24 23 23 24 26 26 27 31 35 40
Wind_Direction
179 173 169 168 170 169 171 170 165 161 159 162 159 155 151 146 139 137 138 137 138 138 136 135 133 132 134 135 137 139 140 142 138 136 137 135 133 127 121 120 119 118 116 113 111 103 95 94 95 91 88 86 83 83 90 98 103 104 108 110 114 117 112 109 107 97 91 92 91 92 90 87 90 98 107 118 126 123 110 100 95 96 107 116 113
172 171 169 168 170 170 171 168 169 166 160 163 160 157 152 144 142 140 140 139 139 137 135 135 134 133 134 134 135 134 133 135 133 132 134 131 129 126 122 122 122 119 117 113 106 97 93 94 93 89 87 87 81 78 88 104 109 110 114 113 115 121 119 114 112 100 89 89 89 92 89 83 92 101 108 120 129 124 112 102 100 101 106 112 110
165 170 170 168 171 171 171 168 171 168 161 163 160 159 154 146 144 144 143 141 139 137 135 134 134 134 134 134 133 131 131 133 132 130 131 131 129 128 126 127 126 119 113 107 99 95 94 94 93 91 90 87 75 72 90 112 116 116 119 118 124 135 133 114 104 93 78 79 85 93 91 85 93 101 109 123 130 126 116 108 104 104 107 109 107
165 169 170 169 171 171 172 169 171 172 166 165 162 161 157 150 147 147 145 143 141 138 136 136 135 135 134 135 133 132 133 133 132 131 133 133 131 132 132 132 126 113 105 100 98 95 92 91 90 93 94 84 62 64 94 121 122 123 124 127 142 148 130 107 97 85 74 75 82 92 94 90 95 101 109 119 126 125 118 111 107 107 108 107 106
166 169 171 170 171 172 172 171 171 173 169 165 164 162 159 154 150 150 148 146 144 141 140 139 137 137 137 137 134 134 134 134 133 134 136 135 135 136 134 127 117 107 101 96 89 89 92 93 92 97 96 74 47 51 89 129 130 130 132 137 151 145 127 117 101 86 77 76 84 98 100 96 100 103 109 117 122 122 116 111 110 110 108 107 106
168 170 172 170 173 173 173 176 170 172 172 167 166 163 159 157 156 154 153 151 148 145 143 143 142 141 141 140 137 136 136 136 136 136 137 137 138 136 130 121 113 106 101 99 88 89 99 101 102 108 102 61 35 37 80 132 136 137 142 146 148 139 137 133 110 98 79 76 89 105 110 106 109 109 113 119 122 120 115 112 111 112 113 113 108
170 171 172 171 176 174 175 178 170 171 175 171 170 165 159 159 160 159 160 157 154 150 147 145 145 146 145 144 141 140 140 139 139 140 142 142 139 131 125 120 115 111 106 105 98 98 107 113 115 112 102 61 39 48 93 130 138 143 149 152 149 146 148 143 128 117 79 72 91 117 124 119 119 117 118 121 121 118 115 114 114 116 116 113 107
172 173 173 173 178 177 177 178 172 172 175 174 172 167 161 159 160 162 164 164 162 159 155 152 151 151 149 148 146 145 146 144 145 145 146 143 137 130 128 122 117 120 117 107 107 108 110 128 128 111 106 92 81 86 112 132 141 147 156 162 155 153 155 151 143 120 75 68 90 125 136 133 129 122 120 120 120 119 117 120 121 119 113 108 108
175 176 176 177 179 179 179 180 175 172 175 175 174 171 166 163 161 160 161 162 163 162 160 159 160 160 158 156 153 150 150 151 151 150 149 144 142 142 139 134 127 127 121 112 120 115 102 150 170 156 128 115 110 103 123 140 148 152 163 171 161 156 159 157 150 113 75 70 90 128 144 142 134 127 123 121 121 124 125 129 129 121 113 108 109
177 178 179 180 180 181 182 182 179 175 175 177 176 175 172 170 167 164 163 161 160 159 159 160 161 164 167 169 165 160 157 157 157 154 156 156 155 156 154 149 142 136 130 126 137 136 139 162 155 142 130 125 121 101 129 152 161 162 167 170 160 159 162 160 151 100 84 80 99 133 147 146 141 133 126 127 131 136 132 131 128 115 109 105 101
179 181 182 184 183 183 184 184 183 179 177 179 178 178 178 176 175 172 170 168 165 163 162 162 161 162 165 169 171 169 167 168 166 162 166 168 167 168 170 161 153 147 143 147 152 152 142 138 127 116 111 129 133 93 134 162 168 168 169 163 158 160 161 161 54 31 108 99 127 142 146 146 143 134 129 133 140 145 133 119 115 109 105 102 101
181 184 185 186 185 186 187 186 187 183 181 182 182 181 181 181 181 180 178 177 173 171 170 169 167 165 165 165 167 170 172 172 171 168 170 173 173 175 182 178 166 158 155 164 172 168 154 138 137 134 129 154 147 89 146 166 170 172 171 162 159 161 165 186 351 354 124 121 146 145 146 146 140 135 134 135 135 137 125 111 106 102 101 104 107
183 187 189 190 188 189 190 190 190 188 185 184 186 185 185 186 186 187 186 185 183 181 178 176 175 173 172 170 169 170 172 172 173 173 172 174 177 176 186 196 182 174 174 183 193 188 185 166 160 163 157 173 178 261 182 170 176 179 173 165 163 167 186 253 317 235 135 150 156 148 149 145 138 137 138 131 125 123 119 119 107 98 102 111 116
185 188 191 193 192 191 192 194 193 192 191 188 190 190 189 190 190 192 192 192 192 191 188 185 182 181 179 178 177 175 177 178 180 180 179 180 183 184 193 202 194 190 191 200 211 203 205 200 172 171 168 181 219 251 187 178 188 186 173 169 170 176 210 260 252 174 135 165 160 150 149 144 137 141 146 130 126 128 129 133 111 108 117 122 119
189 190 192 194 194 194 193 197 197 195 195 193 194 195 194 193 194 195 196 197 198 198 198 197 193 189 188 186 186 183 183 184 187 189 190 192 192 196 201 202 199 196 195 209 218 214 220 226 196 180 178 194 232 240 187 184 195 189 176 172 175 184 216 247 186 157 126 167 166 151 146 143 139 143 147 136 137 144 143 139 112 119 128 126 121
192 192 194 195 196 198 197 198 201 199 198 198 199 200 200 199 199 199 199 201 201 203 203 204 203 199 198 195 194 192 191 190 192 195 197 203 205 207 208 202 201 195 192 208 214 216 225 229 223 198 191 204 228 218 183 187 196 189 179 173 176 189 206 184 158 144 132 165 173 158 149 145 143 151 151 144 149 153 146 136 122 127 131 129 127
194 195 196 197 199 201 201 201 202 203 202 202 203 203 205 205 203 203 203 204 204 206 206 208 208 206 206 203 202 199 196 194 194 196 196 203 209 213 214 207 204 194 192 206 211 214 223 226 231 216 202 212 219 195 183 191 196 188 181 174 179 190 196 171 153 142 156 171 177 166 158 157 154 164 164 153 157 154 144 136 131 136 140 138 134
196 198 199 200 201 202 204 204 204 205 206 207 207 206 206 207 207 206 206 207 207 208 209 210 211 211 211 208 208 206 199 194 191 192 192 197 204 213 218 214 206 194 192 203 210 210 218 224 230 225 210 212 200 185 188 194 194 190 185 177 185 197 194 179 161 158 188 183 181 176 175 178 172 179 175 160 160 151 136 135 136 142 144 143 138
198 201 202 204 204 205 205 207 207 206 208 210 211 211 210 210 210 210 209 209 208 209 211 212 213 213 214 213 212 211 205 197 194 193 193 198 204 216 221 217 206 195 193 201 207 210 216 223 231 226 209 203 182 179 193 198 194 194 191 181 188 198 187 188 177 175 201 201 195 196 191 190 189 186 176 164 163 151 144 148 144 147 146 142 139
199 203 205 207 206 207 207 209 211 210 210 211 213 215 214 214 213 213 212 212 210 210 211 212 214 214 215 215 214 214 212 205 201 199 199 200 206 220 222 220 206 195 195 200 204 209 217 224 234 228 205 193 177 180 196 201 199 202 202 191 194 202 187 192 199 195 205 211 215 217 204 204 212 195 175 170 169 152 147 159 157 152 148 147 145
202 205 207 209 209 210 210 211 213 214 213 212 214 216 217 217 216 214 214 214 214 213 213 213 214 214 215 216 215 215 216 214 210 208 206 205 207 216 221 223 209 194 196 201 203 208 216 224 233 231 211 187 179 184 195 203 207 211 213 205 203 213 208 202 218 221 217 212 218 225 221 223 232 218 188 174 172 164 159 166 169 158 149 155 155
204 206 209 210 211 212 213 214 215 216 215 213 214 216 218 218 216 215 215 215 215 215 215 215 215 215 215 216 217 217 218 219 218 216 214 210 209 214 219 221 216 200 199 203 204 207 215 222 228 228 217 190 185 191 197 203 212 219 221 216 212 219 225 226 231 240 243 230 219 221 229 233 236 234 208 180 172 177 177 175 171 160 155 161 161
206 207 210 210 213 215 216 217 217 216 215 215 215 216 217 217 217 216 216 215 215 215 215 216 215 215 216 216 217 219 219 220 222 223 222 218 215 219 221 222 221 211 205 207 209 211 216 221 223 221 218 202 193 199 203 206 212 221 225 222 219 223 231 236 242 243 252 253 232 220 226 234 237 237 218 185 174 175 175 178 174 166 168 167 164
209 210 210 210 214 218 220 219 218 217 215 215 215 216 217 217 217 217 218 217 216 216 216 216 216 216 217 218 219 220 220 221 222 225 227 224 221 222 223 223 223 218 211 209 212 216 220 224 224 221 218 214 208 207 211 212 216 222 226 228 225 227 232 237 244 248 251 254 245 227 223 231 235 238 225 194 176 171 167 176 177 167 173 172 168
210 211 212 212 215 219 219 217 216 217 216 215 213 215 216 218 219 219 218 218 218 218 218 218 218 218 218 219 221 222 221 221 221 222 226 227 224 223 222 221 221 220 217 212 213 217 220 222 223 222 219 219 220 218 218 219 220 224 227 229 229 230 233 236 241 248 257 260 255 231 223 230 232 238 230 199 177 172 168 174 175 165 172 174 171
210 212 213 214 215 217 218 215 215 216 217 216 215 214 214 216 219 219 218 219 219 218 219 219 219 220 221 221 222 222 222 222 220 218 220 223 223 223 224 223 221 221 221 219 217 216 218 219 221 222 221 220 224 228 228 226 225 225 227 230 233 232 233 235 238 244 253 264 267 237 226 233 232 236 225 192 176 178 176 178 179 177 180 180 178
210 214 215 215 215 217 217 216 216 216 217 218 217 215 213 214 216 218 218 218 219 218 218 219 219 220 221 221 220 221 222 222 221 218 217 220 223 225 226 226 226 224 223 226 224 220 219 219 220 222 223 223 224 230 233 233 231 227 228 231 236 238 236 236 235 240 245 255 266 250 236 236 237 238 216 183 181 187 185 184 181 182 184 185 185
211 214 215 216 216 217 216 216 217 217 218 218 216 216 216 215 215 216 216 217 218 217 217 218 217 217 220 222 220 219 220 223 224 220 219 221 224 226 228 229 230 229 226 228 228 225 223 221 222 222 224 226 226 229 233 235 235 233 232 232 237 242 241 238 234 236 240 245 256 258 249 242 242 239 208 180 189 193 190 188 182 185 189 188 188
215 216 214 216 218 217 217 217 218 218 219 218 216 215 216 217 217 217 217 218 218 217 218 219 219 217 217 220 220 219 219 221 225 224 221 222 225 226 226 229 233 233 229 228 228 226 226 225 224 224 225 227 228 230 232 235 237 238 236 236 239 243 244 243 238 236 238 241 247 254 257 251 247 241 215 190 194 197 193 193 190 191 195 193 193
219 218 215 217 218 218 219 219 219 219 219 217 216 216 216 217 217 218 218 219 220 220 219 219 221 221 219 220 221 221 220 219 223 226 224 224 227 227 225 227 232 234 232 231 230 228 228 227 226 226 226 227 230 232 234 236 238 240 241 241 240 243 245 245 244 241 240 241 243 247 252 254 250 244 229 206 199 200 196 200 199 192 194 197 196
220 218 218 219 218 219 221 221 219 219 220 219 218 217 217 217 219 219 219 219 220 222 223 221 221 220 220 222 222 223 225 223 222 224 226 227 228 230 228 226 230 236 237 236 233 229 229 230 229 230 229 229 231 233 235 237 240 242 243 244 243 243 244 245 246 246 245 245 245 246 246 248 247 246 237 214 202 204 201 204 201 190 194 198 197
220 220 223 221 218 219 221 221 221 220 220 220 220 219 219 219 220 220 220 221 220 219 221 222 222 220 217 217 219 221 222 222 221 222 225 227 228 229 230 230 232 235 240 243 239 232 231 232 232 232 233 234 234 235 237 238 241 243 244 246 247 245 244 244 245 246 248 249 248 249 247 246 244 245 241 221 208 207 206 206 202 193 195 197 197
222 225 226 222 222 222 221 222 223 222 221 222 223 222 222 221 221 220 221 222 221 219 218 218 219 221 220 218 219 219 218 220 225 225 223 226 228 228 229 232 234 234 239 245 244 236 231 230 231 231 232 233 234 236 238 238 240 243 245 246 248 249 248 245 244 245 247 250 251 251 249 248 245 244 244 231 218 211 209 211 207 197 195 196 196
228 228 227 225 226 225 222 222 223 223 224 225 225 224 224 223 222 222 222 222 222 222 222 221 221 221 223 223 222 220 221 224 228 226 223 224 226 226 228 231 233 234 237 241 243 240 234 231 230 230 231 232 233 235 236 238 240 241 243 246 248 250 251 249 248 246 246 249 252 251 250 250 249 245 242 235 227 218 211 215 212 202 197 197 196
233 231 231 231 230 228 225 224 223 224 225 226 226 226 226 225 225 224 223 224 224 224 224 225 225 223 224 224 223 222 223 226 227 224 222 222 223 224 227 229 232 235 237 237 238 241 239 235 233 231 232 234 234 235 236 239 242 243 243 245 247 248 250 252 252 250 247 247 249 251 251 250 251 249 244 236 230 223 215 217 215 205 202 200 199
236 235 235 235 234 231 230 227 224 224 225 227 227 228 227 227 227 226 226 227 226 227 227 226 227 226 225 223 223 222 222 223 224 223 222 224 225 226 228 233 236 238 239 237 234 237 237 234 233 233 233 233 234 234 235 239 243 246 248 247 247 247 247 249 252 253 252 249 247 248 250 250 251 250 249 242 232 225 219 220 216 208 206 203 201
241 241 239 238 237 236 234 230 227 226 225 226 228 228 227 227 228 228 228 229 229 229 229 229 229 229 228 226 224 222 222 222 222 223 223 225 226 228 230 233 235 236 236 235 235 236 235 233 234 236 235 233 233 232 233 237 240 246 251 252 251 249 247 248 251 253 255 255 252 249 249 250 252 251 250 245 237 228 222 221 218 214 213 208 203
246 246 245 243 242 240 237 234 231 229 227 226 227 228 227 227 228 229 229 229 231 231 231 230 230 231 230 229 227 225 224 224 223 222 222 222 222 224 228 228 229 230 231 234 236 237 236 237 236 236 236 232 231 231 232 234 238 243 247 251 253 253 252 251 251 252 254 257 257 255 252 250 251 252 251 246 240 233 227 224 221 220 219 213 208
251 250 249 247 245 242 240 238 235 231 229 226 225 226 225 225 226 227 227 227 229 230 230 230 230 231 231 230 229 227 226 226 223 221 220 221 221 223 226 227 229 230 231 233 235 235 234 234 234 235 234 233 232 233 233 236 242 246 246 247 252 252 252 251 250 251 254 255 257 258 257 254 252 252 252 249 243 236 232 228 223 222 221 217 213
257 254 251 248 245 242 239 238 237 233 229 225 222 222 221 222 222 223 223 224 226 227 226 228 229 231 231 230 229 228 227 226 224 223 223 224 225 226 227 228 230 230 229 229 230 230 230 229 231 232 231 232 235 236 237 240 244 248 247 247 250 251 251 250 249 250 254 256 256 256 256 255 255 253 252 250 245 238 234 231 224 221 220 218 216
258 254 250 246 243 241 237 235 236 233 228 224 220 218 217 217 218 220 221 223 225 225 224 226 228 229 231 230 229 229 228 227 227 227 226 227 226 226 225 224 225 225 225 225 226 228 229 231 233 233 231 231 232 234 237 239 239 240 244 245 244 244 246 247 248 248 252 255 255 255 255 253 253 253 251 249 245 239 234 231 226 222 220 218 216
255 251 247 245 242 238 235 233 233 231 228 224 220 218 217 216 217 220 221 223 224 224 224 225 226 228 230 230 230 230 230 230 230 228 227 226 225 224 222 220 219 221 222 222 225 228 230 231 231 230 230 230 231 234 235 234 230 229 234 243 244 243 245 246 247 247 246 247 247 249 252 252 250 251 250 246 242 238 234 231 227 223 221 219 218
253 249 245 244 241 236 233 232 230 229 228 225 222 220 219 218 219 221 222 223 224 225 225 226 226 226 228 230 230 231 231 231 230 228 226 225 224 223 221 220 218 218 218 218 221 224 226 227 228 229 229 230 233 235 233 231 229 228 231 241 237 243 252 245 243 244 242 240 240 241 245 248 250 251 248 243 239 236 233 231 227 225 223 222 220
247 245 241 239 237 235 232 230 228 228 227 225 223 222 221 220 220 221 222 223 224 225 225 225 225 225 227 229 230 231 231 230 229 227 225 225 224 223 221 220 219 217 217 216 217 221 224 224 226 229 228 226 228 231 235 236 232 226 219 216 160 193 253 236 235 244 243 239 238 239 241 243 246 247 244 240 238 235 233 230 227 225 224 222 221
242 240 238 236 235 234 232 230 228 227 226 225 224 221 219 218 216 215 217 218 220 221 219 220 222 222 224 226 227 229 228 228 228 227 226 225 225 224 223 222 220 217 217 217 218 220 219 218 223 228 227 223 221 223 231 235 233 228 218 196 135 181 221 178 235 256 245 239 240 241 240 241 243 243 241 238 237 236 233 230 227 224 223 222 220
243 242 241 239 237 235 233 230 227 226 226 225 223 219 216 214 209 205 205 205 209 212 213 216 219 221 222 223 224 226 227 227 227 227 227 226 225 225 225 225 223 220 217 216 217 217 217 220 223 223 220 218 216 215 222 228 231 232 227 226 240 242 215 137 88 292 266 246 245 243 241 241 243 245 244 240 237 236 233 229 227 225 223 220 219
249 249 245 241 238 236 234 230 227 225 224 224 222 218 215 213 209 207 207 206 209 213 215 219 221 222 221 222 223 225 226 227 226 227 226 225 225 226 226 226 225 223 219 217 216 217 221 224 221 216 216 218 219 220 226 227 227 234 236 238 247 250 246 242 218 230 302 267 251 249 247 244 243 246 249 246 241 238 234 229 226 224 223 220 219
258 254 248 243 239 237 235 232 228 225 223 222 220 217 214 213 212 211 211 212 214 216 218 221 223 223 222 221 223 225 227 226 226 225 224 224 224 224 225 224 224 224 222 221 220 221 222 222 222 225 229 229 228 228 228 226 223 231 237 238 242 245 247 247 240 236 244 268 273 270 263 252 245 246 249 254 253 247 244 239 232 228 225 222 220
263 257 252 246 242 239 236 232 229 225 223 220 218 217 215 214 213 213 214 215 216 218 220 221 222 222 221 221 221 224 225 225 224 224 223 223 223 224 224 224 223 223 223 224 224 223 222 222 225 228 230 230 229 229 230 229 229 232 234 233 234 238 243 245 244 239 230 242 262 261 264 264 260 258 257 259 259 255 261 267 258 245 235 227 223
263 259 255 248 242 238 233 230 228 225 222 220 218 217 215 214 214 214 215 216 215 216 217 219 220 219 219 219 219 221 222 222 221 222 223 223 223 225 224 223 223 223 223 223 222 222 222 224 226 228 227 226 225 226 230 234 234 235 234 229 225 224 229 236 237 235 230 235 238 225 251 264 274 275 273 272 268 267 272 276 272 260 248 238 229
264 259 254 249 241 235 230 228 228 225 222 219 217 216 215 214 214 215 215 215 214 211 212 214 214 214 215 216 216 218 219 219 218 218 220 222 223 224 223 222 222 222 222 221 220 221 222 224 226 227 226 225 225 227 230 232 231 233 233 229 225 220 216 217 221 224 220 224 237 228 250 260 264 268 275 280 277 276 276 274 271 263 254 246 235